Location: Le Sartre
(44.8050°N, 2.2123°E)
Time: 21:58:01
(UTC+00:00)

Meteor 1-16 - Pass Details

Date: 15 May 2026
Orbit: 815 x 872 km, 81.2° (Epoch: 10 June)

Event Time Altitude Azimuth Distance (km) Brightness Sun altitude
Rises 23:36:28 0° 349° (N) 3,360 9.1 -26.1°
Reaches altitude 10° 23:38:52 10° 350° (N) 2,420 8.1 -26.1°
Maximum altitude 23:44:21 87° 81° (E) 823 4.5 -26.1°
Enters shadow 23:44:42 79° 154° (SSE) 836 4.4 -26.1°
